Погода в Посёлке им. Кирова

Россия / Владимирская область     56°27′04″N   41°01′52″E
темп.,
°C
ветер,
м/с
пор.,
м/с
влажн.,
%
обл.,
%
осадки,
мм/ч
давл.,
гПа
погр.,
м
27 сентября, пн
пн2700:00+8с41192100 0.1 1014442
03:00+8с4993100 0.2 1015345
06:00+8с41095100 0.1 1017573
09:00+8с51094100 0.5 1018577
12:00+10ссв5987100 0.2 1019807
15:00+9ссв51091100 0.3 1020799
18:00+8ссв51091100 0.3 1022739
21:00+7св5990100 1.4 10241153
28 сентября, вт
вт2800:00+5всв4986100 0.1 1026733
03:00+5св4989100 0.2 1027773
06:00+5св488974 0.0 1029602
09:00+5всв588034 0.0 1031612
12:00+9всв455917 0.0 10311015
15:00+10св4547100 0.0 10311184
18:00+6ссв22685 0.0 103324
21:00+4ссв22775 0.0 103420
29 сентября, ср
ср2900:00+3с22800 0.0 103515
03:00+2с22830 0.0 103520
06:00+2ссз23885 0.0 103544
09:00+6ссв24715 0.0 1035310
12:00+10ссв33565 0.0 1035895
15:00+11с335755 0.0 10341167
18:00+9с2470100 0.0 1034122
21:00+7с247681 0.0 103595
30 сентября, чт
чт3000:00+8сз1172100 0.0 103511
03:00+8зсз2373100 0.0 103561
06:00+7зсз2478100 0.0 1035113
09:00+10сз237390 0.0 1035304
12:00+13зсз226692 0.0 1035951
15:00+13зсз236477 0.1 1034967
18:00+11сз2278100 0.1 103448
21:00+9сз238625 0.1 103439
1 октября, пт
пт100:00+8сз22857 0.0 103421
03:00+9зсз238392 0.0 103576
06:00+10зсз2684100 0.0 1035166
09:00+11сз2680100 0.0 1035282
12:00+13сз346544 0.0 1035711
15:00+14зсз34615 0.0 1034896
18:00+10з22786 0.0 103413
21:00+8з22866 0.0 103421